Location: Mount Cross
(36.6390°N, 79.4878°W)
Time: 08:57:08
(UTC+00:00)

Altair - Visible Passes

Search period start: 29 March 2023 00:00
Search period end: 08 April 2023 00:00
Orbit: 1501 x 1682 km, 47.2° (Epoch: 28 March)

Date Brightness Start Highest point End Pass type
(mag) Time Alt. Az. Time Alt. Az. Time Alt. Az.
29 Mar 8.1 08:19:48 37° SSE 08:22:20 43° SE 08:30:56 10° ENE visible
29 Mar 7.6 10:17:49 12° WSW 10:26:43 71° NNW 10:35:57 10° NE visible
30 Mar 8.2 07:56:07 38° SSE 07:57:12 39° SE 08:05:39 10° ENE visible
30 Mar 7.5 09:54:09 19° WSW 10:01:30 75° NNW 10:10:47 10° NE visible
31 Mar 8.3 07:32:23 36° SE 07:32:23 36° SE 07:40:20 10° ENE visible
31 Mar 7.5 09:30:24 27° WSW 09:36:17 80° NNW 09:45:36 10° ENE visible
01 Apr 8.6 07:08:34 31° ESE 07:08:34 31° ESE 07:15:00 10° ENE visible
01 Apr 7.4 09:06:35 37° WSW 09:11:04 84° NNW 09:20:25 10° ENE visible
02 Apr 8.8 06:44:42 26° ESE 06:44:42 26° ESE 06:49:38 10° ENE visible
02 Apr 7.4 08:42:42 49° SW 08:45:52 89° NNW 08:55:14 10° ENE visible
03 Apr 9.1 06:20:47 20° E 06:20:47 20° E 06:24:15 10° ENE visible
03 Apr 7.3 08:18:48 64° SW 08:20:40 86° SE 08:30:04 10° ENE visible
03 Apr 8.0 10:16:58 10° W 10:26:06 49° NNW 10:34:59 10° ENE visible
04 Apr 9.3 05:56:50 15° E 05:56:50 15° E 05:58:48 10° ENE visible
04 Apr 7.3 07:54:50 77° S 07:55:29 81° SE 08:04:52 10° ENE visible
04 Apr 8.0 09:52:49 14° W 10:00:49 50° NNW 10:09:46 10° ENE visible
05 Apr 9.5 05:32:49 11° E 05:32:49 11° E 05:33:17 10° E visible
05 Apr 7.4 07:30:49 74° ESE 07:30:49 74° ESE 07:39:41 10° ENE visible
05 Apr 7.9 09:28:49 20° W 09:35:31 52° NNW 09:44:32 10° ENE visible
06 Apr 7.7 07:06:46 61° E 07:06:46 61° E 07:14:29 10° ENE visible
06 Apr 7.9 09:04:45 27° W 09:10:14 54° NNW 09:19:19 10° ENE visible
07 Apr 8.0 06:42:40 49° E 06:42:40 49° E 06:49:17 10° ENE visible
07 Apr 7.8 08:40:40 34° W 08:44:57 56° NNW 08:54:07 10° ENE visible
